sat.trackr.live / text

‹ back to catalog

STARLINK-5209

NORAD 54061 · 2022-136L

PAYLOAD ACTIVE UNKNOWN

§ Identity

Operator
Country
US
Launch date
2022-10-20
Launch site
AFETR
Launch vehicle
Mass (kg)
RCS (m²)

Purposes: comms

External: N2YO · Heavens-Above · Gunter

§ Orbital elements

Epoch: 2026-09-20T08:54:30.389184Z

Period
93.85 min
Inclination
53.1613°
Eccentricity
0.0001263
Mean motion
15.34389520 rev/d
Perigee alt
461.9 km
Apogee alt
463.6 km
Semi-major
6,840.9 km
B*
3.8714e-5
RAAN
142.6379°
Arg perigee
89.6957°
Mean anomaly
270.4190°
Rev number
21,689

§ Raw data

STARLINK-52091 54061U 22136L   26263.37118506  .00000932  00000+0  38714-4 0  99902 54061  53.1613 142.6379 0001263  89.6957 270.4190 15.34389520216894

JSON: /api/v1/satellites/54061 · /tle

For live sub-satellite position, see the globe view (requires WebGL).

§ Visibility from observer

Set your observer location to see the next 7 days of passes ≥ 10°. The values pass through the URL so the page stays shareable.

No JS? Fill the form by hand. The geolocation button needs JavaScript.